Weather in Châlons-en-Champagne

France     48°57′21″N   4°21′57″E
temp.,
°C
wind,
m/s
gust,
m/s
humid.,
%
clouds,
%
prec.,
mm/h
press.,
hPa
HPBL,
m
17 may, tue
tue1723:00+16se2286100 0.0 102112
02:00+15sse3387100 0.0 102150
05:00+14sse2290100 0.0 102018
08:00+16se2385100 0.0 102093
11:00+22se336649 0.0 1021492
14:00+25ese33535 0.0 10191393
17:00+25ese32515 0.0 10181664
20:00+22e33702 0.0 101838
18 may, wed
wed1823:00+17ese33820 0.0 101932
02:00+16s2286100 0.0 102023
05:00+15s118952 0.0 102011
08:00+18ene118496 0.0 102193
11:00+22nnw227545 0.0 1022741
14:00+22n437665 0.0 1021668
17:00+25nne226420 0.0 1020911
20:00+23nne347988 0.1 101995
19 may, thu
thu1923:00+18e239085 0.0 101829
02:00+17se2290100 0.0 101824
05:00+16s2289100 0.1 101722
08:00+18ssw3691100 0.3 1018250
11:00+22sw4779100 0.1 1019565
14:00+24sw6867100 0.1 10201041
17:00+25sw576562 0.1 10191437
20:00+23wnw22805 1.5 101944
20 may, fri
fri2023:00+17nnw35966 0.6 102193
02:00+16nnw3597100 4.5 1020122
05:00+15ne349816 0.3 101978
08:00+17s3695100 0.3 1020188
11:00+18s3793100 0.4 1019410
14:00+22ssw4876100 0.5 1018845
17:00+24wsw8107297 0.2 10181291
20:00+17nw6987100 0.7 1021693
21 may, sat
sat2123:00+14nnw229493 0.0 102225
02:00+12wnw11955 0.0 102410
05:00+11s229412 0.0 102411
08:00+13wsw228734 0.0 1025141
11:00+17wnw1263100 0.0 1024719
14:00+21wnw1255100 0.0 10231196
17:00+21e11525 0.0 10211250
20:00+19ene34739 0.0 102079